• In Hungary
  • List of Countries
  • For 7 days
  • Water Temperature
  • Satellite Maps
  • Weather Map
  • News
  • Weather Widgets
  • user-avatar
    Login

    Hourly Weather Kirchheim unter Teck

    Today, 18 February, Sunday

    Time Temperature Precipitation Wind Pressure Humidity
    00:00 0°C° 0.1 mm 1 mps 738 mmHg 96%
    01:00 -1°C° 0.1 mm 1 mps 738 mmHg 96%
    02:00 -1°C° 0 mm 1 mps 739 mmHg 96%
    03:00 -1°C° 0 mm 1 mps 739 mmHg 96%
    04:00 -2°C° 0 mm 1 mps 739 mmHg 96%
    05:00 -2°C° 0 mm 1 mps 739 mmHg 96%
    06:00 -3°C° 0 mm 1 mps 739 mmHg 95%
    07:00 -3°C° 0 mm 1 mps 739 mmHg 95%
    08:00 -2°C° 0 mm 1 mps 739 mmHg 93%
    09:00 -1°C° 0 mm 1 mps 740 mmHg 91%
    10:00 +1°C° 0 mm 1 mps 740 mmHg 90%
    11:00 -1°C° 0 mm 2 mps 739 mmHg 89%
    12:00 +1°C° 0 mm 2 mps 739 mmHg 89%
    13:00 +2°C° 0 mm 2 mps 739 mmHg 88%
    14:00 +2°C° 0 mm 2 mps 739 mmHg 88%
    15:00 +2°C° 0 mm 2 mps 738 mmHg 87%
    16:00 +2°C° 0 mm 2 mps 738 mmHg 87%
    17:00 +1°C° 0 mm 2 mps 738 mmHg 88%
    18:00 +1°C° 0 mm 2 mps 738 mmHg 90%
    19:00 -1°C° 0 mm 2 mps 738 mmHg 91%
    20:00 -1°C° 0 mm 2 mps 738 mmHg 91%
    21:00 -1°C° 0 mm 2 mps 738 mmHg 91%
    22:00 -1°C° 0 mm 2 mps 738 mmHg 91%
    23:00 -2°C° 0 mm 2 mps 738 mmHg 92%

    Tomorrow, 19 February, Monday

    Time Temperature Precipitation Wind Pressure Humidity
    00:00 -3°C° 0 mm 2 mps 738 mmHg 92%
    01:00 -4°C° 0 mm 2 mps 737 mmHg 93%
    02:00 -2°C° 0 mm 1 mps 737 mmHg 93%
    03:00 -3°C° 0 mm 1 mps 737 mmHg 94%
    04:00 -3°C° 0 mm 1 mps 736 mmHg 95%
    05:00 -3°C° 0 mm 1 mps 736 mmHg 95%
    06:00 -3°C° 0 mm 1 mps 736 mmHg 95%
    07:00 -3°C° 0 mm 1 mps 736 mmHg 95%
    08:00 -2°C° 0 mm 1 mps 736 mmHg 92%
    09:00 -1°C° 0 mm 1 mps 736 mmHg 90%
    10:00 -2°C° 0 mm 2 mps 736 mmHg 87%
    11:00 +1°C° 0 mm 1 mps 735 mmHg 85%
    12:00 +1°C° 0 mm 1 mps 735 mmHg 84%
    13:00 +2°C° 0 mm 1 mps 735 mmHg 82%
    14:00 +2°C° 0 mm 1 mps 735 mmHg 81%
    15:00 +2°C° 0 mm 1 mps 734 mmHg 81%
    16:00 +2°C° 0 mm 1 mps 734 mmHg 80%
    17:00 +2°C° 0 mm 1 mps 734 mmHg 83%
    18:00 +1°C° 0 mm 1 mps 734 mmHg 86%
    19:00 -1°C° 0 mm 0 mps 734 mmHg 89%
    20:00 -1°C° 0 mm 0 mps 734 mmHg 89%
    21:00 -1°C° 0 mm 1 mps 734 mmHg 90%
    22:00 -2°C° 0 mm 1 mps 734 mmHg 90%
    23:00 -2°C° 0 mm 1 mps 734 mmHg 90%

    Day after tomorrow, 20 February, Tuesday

    Time Temperature Precipitation Wind Pressure Humidity
    00:00 -4°C° 0 mm 0 mps 734 mmHg 91%
    01:00 -4°C° 0 mm 0 mps 734 mmHg 91%
    02:00 -4°C° 0 mm 0 mps 734 mmHg 91%
    03:00 -4°C° 0 mm 0 mps 733 mmHg 91%
    04:00 -4°C° 0 mm 0 mps 733 mmHg 91%
    05:00 -3°C° 0 mm 1 mps 733 mmHg 91%
    06:00 -4°C° 0 mm 1 mps 733 mmHg 90%
    07:00 -4°C° 0 mm 1 mps 733 mmHg 90%
    08:00 -3°C° 0 mm 0 mps 733 mmHg 87%
    09:00 -2°C° 0 mm 0 mps 733 mmHg 83%
    10:00 0°C° 0 mm 0 mps 733 mmHg 80%
    11:00 +2°C° 0 mm 1 mps 733 mmHg 78%
    12:00 +3°C° 0 mm 1 mps 733 mmHg 76%
    13:00 +4°C° 0 mm 1 mps 732 mmHg 74%
    14:00 +4°C° 0 mm 1 mps 732 mmHg 74%
    15:00 +4°C° 0 mm 1 mps 732 mmHg 74%
    16:00 +3°C° 0 mm 2 mps 732 mmHg 75%
    17:00 +2°C° 0 mm 1 mps 732 mmHg 79%
    18:00 +1°C° 0 mm 1 mps 733 mmHg 82%
    19:00 0°C° 0 mm 1 mps 733 mmHg 86%
    20:00 -1°C° 0 mm 1 mps 733 mmHg 87%
    21:00 -1°C° 0 mm 1 mps 733 mmHg 88%
    22:00 -1°C° 0 mm 1 mps 734 mmHg 89%
    23:00 -2°C° 0 mm 1 mps 734 mmHg 89%

    21 February, Wednesday

    Time Temperature Precipitation Wind Pressure Humidity
    00:00 -2°C° 0 mm 1 mps 734 mmHg 90%
    01:00 -2°C° 0 mm 1 mps 734 mmHg 91%
    02:00 -3°C° 0 mm 1 mps 734 mmHg 91%
    03:00 -3°C° 0 mm 1 mps 734 mmHg 92%
    04:00 -3°C° 0 mm 1 mps 734 mmHg 93%
    05:00 -3°C° 0 mm 1 mps 734 mmHg 93%
    06:00 -3°C° 0 mm 1 mps 734 mmHg 93%
    07:00 -3°C° 0 mm 1 mps 734 mmHg 93%
    08:00 -4°C° 0 mm 2 mps 734 mmHg 90%
    09:00 -3°C° 0 mm 2 mps 734 mmHg 87%
    10:00 -2°C° 0 mm 2 mps 734 mmHg 83%
    11:00 -1°C° 0 mm 2 mps 734 mmHg 81%
    12:00 0°C° 0 mm 3 mps 734 mmHg 78%
    13:00 +1°C° 0 mm 3 mps 733 mmHg 76%
    14:00 +1°C° 0 mm 3 mps 733 mmHg 76%
    15:00 +1°C° 0 mm 3 mps 733 mmHg 76%
    16:00 +1°C° 0 mm 3 mps 733 mmHg 75%
    17:00 0°C° 0 mm 3 mps 733 mmHg 77%
    18:00 -1°C° 0 mm 3 mps 733 mmHg 79%
    19:00 -2°C° 0 mm 3 mps 733 mmHg 81%
    20:00 -2°C° 0 mm 3 mps 733 mmHg 82%
    21:00 -4°C° 0 mm 3 mps 733 mmHg 83%
    22:00 -4°C° 0 mm 3 mps 733 mmHg 84%
    23:00 -4°C° 0 mm 3 mps 732 mmHg 85%

    22 February, Thursday

    Time Temperature Precipitation Wind Pressure Humidity
    00:00 -5°C° 0 mm 3 mps 732 mmHg 85%
    01:00 -5°C° 0 mm 3 mps 732 mmHg 86%
    02:00 -5°C° 0 mm 4 mps 731 mmHg 86%
    03:00 -5°C° 0 mm 4 mps 731 mmHg 86%
    04:00 -5°C° 0 mm 4 mps 731 mmHg 86%
    05:00 -5°C° 0 mm 4 mps 730 mmHg 86%
    06:00 -5°C° 0 mm 4 mps 730 mmHg 86%
    07:00 -5°C° 0 mm 4 mps 730 mmHg 86%
    08:00 -6°C° 0 mm 5 mps 730 mmHg 83%
    09:00 -5°C° 0 mm 5 mps 730 mmHg 80%
    10:00 -5°C° 0 mm 6 mps 729 mmHg 77%
    11:00 -4°C° 0.1 mm 6 mps 729 mmHg 75%
    12:00 -3°C° 0.1 mm 6 mps 729 mmHg 73%
    13:00 -3°C° 0.1 mm 6 mps 728 mmHg 71%
    14:00 -3°C° 0.2 mm 6 mps 728 mmHg 72%
    15:00 -2°C° 0.2 mm 5 mps 728 mmHg 73%
    16:00 -2°C° 0.2 mm 5 mps 728 mmHg 73%
    17:00 -2°C° 0.2 mm 5 mps 728 mmHg 76%
    18:00 -2°C° 0.2 mm 5 mps 728 mmHg 78%
    19:00 -4°C° 0.2 mm 5 mps 728 mmHg 81%
    20:00 -4°C° 0.2 mm 5 mps 728 mmHg 82%
    21:00 -4°C° 0.2 mm 5 mps 728 mmHg 84%
    22:00 -5°C° 0.2 mm 5 mps 729 mmHg 86%
    23:00 -5°C° 0.1 mm 5 mps 729 mmHg 86%

    23 February, Friday

    Time Temperature Precipitation Wind Pressure Humidity
    00:00 -4°C° 0.1 mm 4 mps 728 mmHg 86%
    01:00 -4°C° 0.1 mm 4 mps 728 mmHg 87%
    02:00 -4°C° 0.1 mm 4 mps 728 mmHg 87%
    03:00 -4°C° 0.1 mm 4 mps 728 mmHg 87%
    04:00 -4°C° 0.1 mm 4 mps 728 mmHg 87%
    05:00 -4°C° 0.1 mm 4 mps 729 mmHg 87%
    06:00 -4°C° 0.1 mm 4 mps 729 mmHg 86%
    07:00 -4°C° 0.1 mm 4 mps 729 mmHg 86%
    08:00 -4°C° 0 mm 4 mps 730 mmHg 84%
    09:00 -4°C° 0 mm 4 mps 730 mmHg 82%
    10:00 -3°C° 0 mm 4 mps 730 mmHg 80%
    11:00 -3°C° 0 mm 4 mps 730 mmHg 78%
    12:00 -2°C° 0 mm 4 mps 730 mmHg 76%
    13:00 -1°C° 0 mm 4 mps 731 mmHg 73%
    14:00 -1°C° 0 mm 4 mps 731 mmHg 72%
    15:00 -1°C° 0 mm 4 mps 731 mmHg 70%
    16:00 -1°C° 0 mm 4 mps 731 mmHg 68%
    17:00 -2°C° 0 mm 4 mps 731 mmHg 70%
    18:00 -4°C° 0 mm 4 mps 732 mmHg 73%
    19:00 -5°C° 0 mm 3 mps 732 mmHg 75%
    20:00 -5°C° 0 mm 4 mps 733 mmHg 75%
    21:00 -7°C° 0 mm 4 mps 733 mmHg 76%
    22:00 -8°C° 0 mm 4 mps 734 mmHg 76%
    23:00 -8°C° 0 mm 4 mps 734 mmHg 75%
    Show more